sat.trackr.live / text

‹ back to catalog

STARLINK-32316

NORAD 61860 · 2024-202R

PAYLOAD ACTIVE UNKNOWN

§ Identity

Operator
Country
US
Launch date
2024-11-07
Launch site
AFETR
Launch vehicle
Mass (kg)
RCS (m²)

Purposes: comms

External: N2YO · Heavens-Above · Gunter

§ Orbital elements

Epoch: 2026-09-21T13:06:23.331168Z

Period
94.27 min
Inclination
43.0023°
Eccentricity
0.0001268
Mean motion
15.27576717 rev/d
Perigee alt
482.2 km
Apogee alt
483.9 km
Semi-major
6,861.2 km
B*
-9.8182e-5
RAAN
208.2314°
Arg perigee
275.4215°
Mean anomaly
84.6492°
Rev number
10,532

§ Raw data

STARLINK-323161 61860U 24202R   26264.54610337 -.00002962  00000+0 -98182-4 0  99922 61860  43.0023 208.2314 0001268 275.4215  84.6492 15.27576717105320

JSON: /api/v1/satellites/61860 · /tle

For live sub-satellite position, see the globe view (requires WebGL).

§ Visibility from observer

Set your observer location to see the next 7 days of passes ≥ 10°. The values pass through the URL so the page stays shareable.

No JS? Fill the form by hand. The geolocation button needs JavaScript.